Orbital Elements at Epoch 2459000.5 (2020-May-31.0) TDB
Reference: JPL 34 (heliocentric ecliptic J2000)
Element | Value | Uncertainty (1-sigma) | Units |
e | .1006723585576754 | 1.4485e-06 | |
a | 1.315173766495028 | 2.8746e-08 | au |
q | 1.182772121508792 | 1.8903e-06 | au |
i | 7.122053325032539 | 2.2782e-05 | deg |
node | 268.6339969219732 | 0.00018961 | deg |
peri | 229.0310997141212 | 0.00062221 | deg |
M | 268.77369126894 | 0.00078164 | deg |
tp | 2459140.101708959051 (2020-Oct-17.60170896) | 0.0011995 | TDB |
period | 550.9004576017367 1.51 | 1.8062e-05 4.945e-08 | d yr |
n | .6534755871636168 | 2.1425e-08 | deg/d |
Q | 1.447575411481264 | 3.164e-08 | au |
|
| | Orbit Determination Parameters
Additional Information
|